CFG6MC EDDF-LGIR

Flight info

Callsign CFG6MC
Flight time 3h 16m
Altitude 35000
Route CINDY8S/18 CINDY Z74 LAMPU DCT NOMBO Y161 MAH DCT LATLO DCT OBEDI DCT TEBLI DCT TIVNU DCT RETRA DCT PINDO DCT PIKOS DCT KEA UL607 GIVIS/N0407F230 T514 XAVIS
Aircraft A320/M-SDE1E3FGHIJ1LORVWXYZ/LB1

Departure

Time 2026-04-14 11:16
Airport Frankfurt Main Airport (EDDF)

Arrival

Time 2026-04-14 14:32
Airport Heraklion International Nikos Kazantzakis Airport (LGIR)
Time Latitude Longitude Altitude Speed Heading
2026-04-14 10:17 50.04466 8.56485 356 ft 0 kts 159°
2026-04-14 11:01 50.04470 8.56482 356 ft 3 kts 159°
2026-04-14 11:01 50.04496 8.56468 362 ft 4 kts 162°
2026-04-14 11:01 50.04521 8.56458 359 ft 4 kts 186°
2026-04-14 11:01 50.04537 8.56468 364 ft 0 kts 249°
2026-04-14 11:02 50.04533 8.56450 356 ft 4 kts 249°
2026-04-14 11:02 50.04523 8.56411 361 ft 4 kts 249°
2026-04-14 11:02 50.04516 8.56382 356 ft 0 kts 249°
2026-04-14 11:06 50.04516 8.56381 356 ft 0 kts 249°
2026-04-14 11:06 50.04510 8.56356 362 ft 5 kts 249°
2026-04-14 11:06 50.04504 8.56330 359 ft 1 kts 249°
2026-04-14 11:07 50.04492 8.56280 357 ft 6 kts 249°
2026-04-14 11:07 50.04478 8.56223 361 ft 8 kts 249°
2026-04-14 11:07 50.04450 8.56105 363 ft 10 kts 249°
2026-04-14 11:07 50.04412 8.56037 356 ft 7 kts 205°
2026-04-14 11:08 50.04353 8.56051 357 ft 9 kts 160°
2026-04-14 11:08 50.04296 8.56074 355 ft 8 kts 183°
2026-04-14 11:08 50.04257 8.56017 360 ft 8 kts 244°
2026-04-14 11:08 50.04235 8.55920 360 ft 13 kts 251°
2026-04-14 11:09 50.04197 8.55766 352 ft 15 kts 249°
2026-04-14 11:09 50.04163 8.55625 356 ft 14 kts 249°
2026-04-14 11:09 50.04131 8.55488 353 ft 15 kts 250°
2026-04-14 11:10 50.04045 8.55129 356 ft 17 kts 249°
2026-04-14 11:10 50.04004 8.54962 359 ft 16 kts 250°
2026-04-14 11:10 50.03967 8.54805 359 ft 15 kts 249°
2026-04-14 11:10 50.03930 8.54655 352 ft 14 kts 249°
2026-04-14 11:11 50.03897 8.54515 350 ft 14 kts 249°
2026-04-14 11:11 50.03863 8.54382 354 ft 13 kts 240°
2026-04-14 11:11 50.03817 8.54277 353 ft 11 kts 237°
2026-04-14 11:11 50.03778 8.54131 349 ft 18 kts 249°
2026-04-14 11:12 50.03733 8.53952 352 ft 18 kts 249°
2026-04-14 11:12 50.03692 8.53773 347 ft 17 kts 250°
2026-04-14 11:12 50.03649 8.53598 347 ft 17 kts 248°
2026-04-14 11:12 50.03607 8.53430 340 ft 16 kts 249°
2026-04-14 11:13 50.03569 8.53273 338 ft 15 kts 249°
2026-04-14 11:13 50.03535 8.53131 337 ft 13 kts 250°
2026-04-14 11:13 50.03504 8.53003 335 ft 12 kts 249°
2026-04-14 11:13 50.03475 8.52886 334 ft 11 kts 247°
2026-04-14 11:14 50.03446 8.52783 333 ft 10 kts 248°
2026-04-14 11:14 50.03423 8.52688 334 ft 9 kts 250°
2026-04-14 11:14 50.03401 8.52608 332 ft 7 kts 233°
2026-04-14 11:14 50.03376 8.52594 334 ft 0 kts 179°
2026-04-14 11:15 50.03376 8.52595 334 ft 0 kts 179°
2026-04-14 11:15 50.03112 8.52597 335 ft 77 kts 179°
2026-04-14 11:15 50.02360 8.52606 335 ft 137 kts 179°
2026-04-14 11:16 50.01241 8.52616 385 ft 178 kts 179°
2026-04-14 11:16 50.00021 8.52618 1146 ft 175 kts 180°
2026-04-14 11:16 49.98794 8.52623 1908 ft 180 kts 179°
2026-04-14 11:16 49.97473 8.52756 2148 ft 201 kts 162°
2026-04-14 11:17 49.96241 8.53929 2367 ft 221 kts 128°
2026-04-14 11:17 49.95454 8.55981 2958 ft 226 kts 117°
2026-04-14 11:17 49.94698 8.58122 3703 ft 229 kts 118°
2026-04-14 11:17 49.94110 8.60411 3946 ft 233 kts 99°
2026-04-14 11:18 49.93965 8.63043 4098 ft 253 kts 93°
2026-04-14 11:18 49.93859 8.65823 4679 ft 260 kts 93°
2026-04-14 11:18 49.93528 8.68584 5498 ft 263 kts 113°
2026-04-14 11:18 49.92491 8.70922 6259 ft 267 kts 139°
2026-04-14 11:19 49.90990 8.72641 7022 ft 270 kts 146°
2026-04-14 11:19 49.89508 8.74291 7760 ft 273 kts 141°
2026-04-14 11:19 49.88180 8.76407 8521 ft 277 kts 128°
2026-04-14 11:19 49.87168 8.78973 9298 ft 281 kts 121°
2026-04-14 11:20 49.86210 8.81631 10059 ft 284 kts 121°
2026-04-14 11:20 49.85234 8.84343 10516 ft 298 kts 122°
2026-04-14 11:20 49.84179 8.87254 10683 ft 321 kts 121°
2026-04-14 11:20 49.83049 8.90366 10881 ft 340 kts 121°
2026-04-14 11:21 49.81873 8.93603 11399 ft 348 kts 121°
2026-04-14 11:21 49.80680 8.96891 12026 ft 353 kts 121°
2026-04-14 11:21 49.79470 9.00216 12667 ft 357 kts 121°
2026-04-14 11:21 49.78243 9.03575 13298 ft 361 kts 121°
2026-04-14 11:22 49.77005 9.06975 13912 ft 365 kts 120°
2026-04-14 11:22 49.76010 9.10561 14467 ft 371 kts 109°
2026-04-14 11:22 49.75349 9.14434 15032 ft 374 kts 108°
2026-04-14 11:22 49.74419 9.18185 15596 ft 375 kts 118°
2026-04-14 11:23 49.73040 9.21610 16168 ft 376 kts 129°
2026-04-14 11:23 49.71340 9.24690 16737 ft 377 kts 133°
2026-04-14 11:23 49.69604 9.27753 17306 ft 380 kts 133°
2026-04-14 11:23 49.67856 9.30832 17868 ft 383 kts 133°
2026-04-14 11:24 49.66089 9.33938 18427 ft 386 kts 133°
2026-04-14 11:24 49.64312 9.37062 18909 ft 389 kts 133°
2026-04-14 11:24 49.62482 9.40140 19402 ft 390 kts 138°
2026-04-14 11:24 49.60365 9.42758 19912 ft 390 kts 148°
2026-04-14 11:25 49.58043 9.44924 20401 ft 392 kts 151°
2026-04-14 11:25 49.55691 9.47071 20903 ft 393 kts 151°
2026-04-14 11:25 49.53327 9.49225 21438 ft 396 kts 151°
2026-04-14 11:25 49.50955 9.51387 21917 ft 398 kts 151°
2026-04-14 11:26 49.48569 9.53564 22371 ft 400 kts 151°
2026-04-14 11:26 49.46172 9.55753 22815 ft 402 kts 151°
2026-04-14 11:26 49.43761 9.57953 23245 ft 404 kts 151°
2026-04-14 11:26 49.41335 9.60159 23672 ft 406 kts 152°
2026-04-14 11:27 49.38934 9.62340 24019 ft 408 kts 151°
2026-04-14 11:27 49.36479 9.64563 24330 ft 410 kts 151°
2026-04-14 11:27 49.34084 9.66963 24642 ft 414 kts 144°
2026-04-14 11:27 49.31933 9.69958 24955 ft 419 kts 137°
2026-04-14 11:28 49.29874 9.73126 25274 ft 421 kts 137°
2026-04-14 11:28 49.27798 9.76304 25601 ft 423 kts 137°
2026-04-14 11:28 49.25703 9.79498 25922 ft 425 kts 137°
2026-04-14 11:28 49.23604 9.82692 26226 ft 427 kts 137°
2026-04-14 11:29 49.21492 9.85904 26519 ft 429 kts 137°
2026-04-14 11:29 49.19369 9.89129 26805 ft 431 kts 137°
2026-04-14 11:29 49.17236 9.92363 27087 ft 433 kts 137°
2026-04-14 11:29 49.15093 9.95601 27372 ft 435 kts 137°
2026-04-14 11:30 49.12940 9.98853 27631 ft 437 kts 137°
2026-04-14 11:30 49.10775 10.02122 27884 ft 438 kts 137°
2026-04-14 11:30 49.08606 10.05401 28148 ft 440 kts 137°
2026-04-14 11:30 49.06425 10.08697 28394 ft 442 kts 137°
2026-04-14 11:31 49.04250 10.12020 28642 ft 444 kts 136°
2026-04-14 11:31 49.02086 10.15377 28876 ft 445 kts 136°
2026-04-14 11:31 48.99920 10.18770 29103 ft 447 kts 135°
2026-04-14 11:31 48.97754 10.22178 29326 ft 448 kts 135°
2026-04-14 11:32 48.95578 10.25592 29535 ft 450 kts 135°
2026-04-14 11:32 48.93389 10.29012 29767 ft 451 kts 135°
2026-04-14 11:32 48.91198 10.32426 30080 ft 450 kts 135°
2026-04-14 11:32 48.89009 10.35823 30366 ft 449 kts 136°
2026-04-14 11:33 48.86856 10.39158 30618 ft 448 kts 135°
2026-04-14 11:33 48.84676 10.42526 30879 ft 447 kts 136°
2026-04-14 11:33 48.82499 10.45885 31137 ft 446 kts 136°
2026-04-14 11:34 48.78160 10.52577 31660 ft 443 kts 135°
2026-04-14 11:34 48.76000 10.55904 31909 ft 443 kts 135°
2026-04-14 11:34 48.73841 10.59227 32175 ft 441 kts 135°
2026-04-14 11:34 48.71689 10.62535 32443 ft 440 kts 135°
2026-04-14 11:35 48.69538 10.65836 32706 ft 439 kts 135°
2026-04-14 11:35 48.67390 10.69126 32959 ft 439 kts 135°
2026-04-14 11:35 48.65249 10.72400 33199 ft 438 kts 135°
2026-04-14 11:35 48.63110 10.75667 33444 ft 437 kts 135°
2026-04-14 11:36 48.60974 10.78928 33679 ft 436 kts 135°
2026-04-14 11:36 48.58837 10.82186 33920 ft 436 kts 135°
2026-04-14 11:36 48.56702 10.85429 34167 ft 435 kts 135°
2026-04-14 11:36 48.54569 10.88664 34368 ft 435 kts 135°
2026-04-14 11:37 48.52432 10.91906 34547 ft 435 kts 135°
2026-04-14 11:37 48.50297 10.95146 34709 ft 436 kts 135°
2026-04-14 11:37 48.48164 10.98381 34871 ft 436 kts 136°
2026-04-14 11:37 48.46021 11.01629 35055 ft 436 kts 136°
2026-04-14 11:38 48.43878 11.04870 35150 ft 437 kts 136°
2026-04-14 11:38 48.39578 11.11351 35165 ft 437 kts 136°
2026-04-14 11:39 48.35278 11.17816 35163 ft 437 kts 136°
2026-04-14 11:39 48.30965 11.24275 35158 ft 437 kts 136°
2026-04-14 11:40 48.26746 11.30855 35159 ft 438 kts 129°
2026-04-14 11:40 48.23547 11.38594 35161 ft 440 kts 121°
2026-04-14 11:41 48.20527 11.46575 35159 ft 440 kts 121°
2026-04-14 11:41 48.17504 11.54551 35161 ft 440 kts 121°
2026-04-14 11:42 48.14469 11.62515 35140 ft 440 kts 121°
2026-04-14 11:42 48.11426 11.70468 35140 ft 440 kts 122°
2026-04-14 11:43 48.08381 11.78407 35141 ft 440 kts 122°
2026-04-14 11:43 48.05332 11.86345 35141 ft 440 kts 122°
2026-04-14 11:44 48.02281 11.94282 35140 ft 440 kts 122°
2026-04-14 11:44 47.99216 12.02194 35143 ft 441 kts 122°
2026-04-14 11:45 47.96139 12.10110 35138 ft 441 kts 122°
2026-04-14 11:45 47.93084 12.17964 35136 ft 441 kts 122°
2026-04-14 11:46 47.90004 12.25869 35134 ft 441 kts 122°
2026-04-14 11:46 47.86910 12.33793 35133 ft 442 kts 122°
2026-04-14 11:47 47.83811 12.41699 35133 ft 442 kts 122°
2026-04-14 11:47 47.80702 12.49592 35131 ft 442 kts 123°
2026-04-14 11:48 47.77589 12.57467 35129 ft 442 kts 123°
2026-04-14 11:48 47.74473 12.65350 35128 ft 442 kts 123°
2026-04-14 11:49 47.71362 12.73181 35118 ft 443 kts 123°
2026-04-14 11:49 47.68055 12.80899 35106 ft 442 kts 131°
2026-04-14 11:50 47.63806 12.87452 35106 ft 441 kts 137°
2026-04-14 11:50 47.59452 12.93873 35108 ft 442 kts 137°
2026-04-14 11:51 47.52979 13.03421 35109 ft 441 kts 137°
2026-04-14 11:51 47.48628 13.09831 35111 ft 441 kts 137°
2026-04-14 11:52 47.44271 13.16222 35100 ft 441 kts 137°
2026-04-14 11:52 47.39917 13.22592 35098 ft 440 kts 137°
2026-04-14 11:53 47.35558 13.28944 35092 ft 440 kts 138°
2026-04-14 11:53 47.31228 13.35318 35091 ft 440 kts 136°
2026-04-14 11:54 47.27821 13.40910 35083 ft 441 kts 133°
2026-04-14 11:54 47.23201 13.48907 35079 ft 441 kts 133°
2026-04-14 11:55 47.19186 13.55720 35076 ft 440 kts 134°
2026-04-14 11:55 47.15782 13.61360 35074 ft 440 kts 134°
2026-04-14 11:56 47.11699 13.68070 35068 ft 440 kts 135°
2026-04-14 11:56 47.07626 13.74786 35066 ft 440 kts 134°
2026-04-14 11:57 47.03588 13.81446 35063 ft 440 kts 135°
2026-04-14 11:57 46.99517 13.88142 35067 ft 439 kts 135°
2026-04-14 11:58 46.95447 13.94810 35068 ft 439 kts 135°
2026-04-14 11:58 46.91374 14.01465 35075 ft 438 kts 135°
2026-04-14 11:59 46.87308 14.08106 35085 ft 438 kts 135°
2026-04-14 11:59 46.83236 14.14726 35091 ft 438 kts 135°
2026-04-14 12:00 46.79159 14.21331 35096 ft 437 kts 135°
2026-04-14 12:00 46.75088 14.27917 35101 ft 437 kts 135°
2026-04-14 12:01 46.71012 14.34503 35102 ft 437 kts 135°
2026-04-14 12:01 46.66941 14.41076 35103 ft 437 kts 135°
2026-04-14 12:02 46.62855 14.47650 35094 ft 437 kts 135°
2026-04-14 12:02 46.58765 14.54198 35087 ft 438 kts 135°
2026-04-14 12:03 46.54665 14.60751 35082 ft 438 kts 135°
2026-04-14 12:03 46.50558 14.67295 35071 ft 438 kts 135°
2026-04-14 12:04 46.46441 14.73840 35052 ft 439 kts 135°
2026-04-14 12:04 46.42331 14.80379 35050 ft 439 kts 135°
2026-04-14 12:05 46.38263 14.86833 35056 ft 439 kts 135°
2026-04-14 12:05 46.34134 14.93364 35056 ft 440 kts 135°
2026-04-14 12:06 46.29996 14.99890 35061 ft 440 kts 135°
2026-04-14 12:06 46.25889 15.06356 35062 ft 440 kts 135°
2026-04-14 12:07 46.21735 15.12875 35067 ft 440 kts 135°
2026-04-14 12:07 46.17577 15.19376 35075 ft 440 kts 135°
2026-04-14 12:08 46.13414 15.25857 35073 ft 440 kts 135°
2026-04-14 12:08 46.09260 15.32335 35078 ft 440 kts 135°
2026-04-14 12:09 46.05100 15.38812 35074 ft 440 kts 135°
2026-04-14 12:09 46.00927 15.45269 35075 ft 440 kts 135°
2026-04-14 12:10 45.96757 15.51715 35073 ft 440 kts 135°
2026-04-14 12:10 45.92611 15.58117 35078 ft 440 kts 135°
2026-04-14 12:11 45.88434 15.64552 35065 ft 440 kts 135°
2026-04-14 12:11 45.84258 15.70972 35069 ft 440 kts 135°
2026-04-14 12:12 45.80062 15.77389 35068 ft 441 kts 135°
2026-04-14 12:12 45.75864 15.83793 35044 ft 441 kts 135°
2026-04-14 12:13 45.71663 15.90201 35044 ft 442 kts 135°
2026-04-14 12:13 45.67458 15.96614 35042 ft 442 kts 135°
2026-04-14 12:14 45.63239 16.03022 35044 ft 442 kts 135°
2026-04-14 12:14 45.59005 16.09420 35040 ft 443 kts 135°
2026-04-14 12:15 45.54773 16.15812 35038 ft 443 kts 135°
2026-04-14 12:15 45.50538 16.22210 35035 ft 444 kts 135°
2026-04-14 12:16 45.46294 16.28590 35033 ft 444 kts 136°
2026-04-14 12:16 45.42060 16.34922 35033 ft 444 kts 136°
2026-04-14 12:17 45.37769 16.41340 35032 ft 445 kts 136°
2026-04-14 12:17 45.33527 16.47674 35029 ft 446 kts 136°
2026-04-14 12:18 45.29240 16.54051 35029 ft 446 kts 136°
2026-04-14 12:18 45.24958 16.60431 35026 ft 447 kts 136°
2026-04-14 12:19 45.20662 16.66811 35025 ft 447 kts 136°
2026-04-14 12:19 45.16458 16.73338 35024 ft 449 kts 133°
2026-04-14 12:20 45.12396 16.80064 35025 ft 450 kts 133°
2026-04-14 12:20 45.08330 16.86804 35023 ft 450 kts 133°
2026-04-14 12:21 45.04217 16.93489 35018 ft 451 kts 133°
2026-04-14 12:21 45.00073 17.00144 35017 ft 451 kts 133°
2026-04-14 12:22 44.95678 17.06430 35016 ft 448 kts 144°
2026-04-14 12:22 44.90513 17.11164 35016 ft 446 kts 150°
2026-04-14 12:23 44.85233 17.15775 35019 ft 446 kts 150°
2026-04-14 12:23 44.79955 17.20385 35018 ft 446 kts 150°
2026-04-14 12:24 44.74673 17.24989 35018 ft 446 kts 150°
2026-04-14 12:24 44.69388 17.29583 35018 ft 447 kts 150°
2026-04-14 12:25 44.64098 17.34168 35017 ft 447 kts 150°
2026-04-14 12:25 44.58809 17.38755 35018 ft 447 kts 150°
2026-04-14 12:26 44.53519 17.43335 35017 ft 447 kts 150°
2026-04-14 12:26 44.48226 17.47898 35012 ft 447 kts 150°
2026-04-14 12:27 44.42926 17.52451 35010 ft 447 kts 150°
2026-04-14 12:27 44.37626 17.56995 35009 ft 447 kts 150°
2026-04-14 12:28 44.32321 17.61532 35008 ft 447 kts 151°
2026-04-14 12:28 44.27047 17.66028 35005 ft 447 kts 151°
2026-04-14 12:29 44.21733 17.70553 35005 ft 447 kts 151°
2026-04-14 12:29 44.16421 17.75076 35006 ft 447 kts 151°
2026-04-14 12:30 44.11101 17.79594 35007 ft 447 kts 151°
2026-04-14 12:30 44.05783 17.84101 35013 ft 448 kts 151°
2026-04-14 12:31 44.00463 17.88602 35015 ft 448 kts 151°
2026-04-14 12:31 43.95139 17.93093 35018 ft 448 kts 151°
2026-04-14 12:32 43.89809 17.97574 35018 ft 448 kts 151°
2026-04-14 12:32 43.84479 18.02046 35017 ft 448 kts 151°
2026-04-14 12:33 43.79142 18.06518 35014 ft 448 kts 151°
2026-04-14 12:33 43.73804 18.10989 35013 ft 449 kts 151°
2026-04-14 12:34 43.68453 18.15447 35011 ft 449 kts 152°
2026-04-14 12:34 43.63094 18.19914 35010 ft 450 kts 151°
2026-04-14 12:35 43.57778 18.24343 35013 ft 450 kts 151°
2026-04-14 12:35 43.52417 18.28789 35015 ft 450 kts 151°
2026-04-14 12:36 43.47049 18.33214 35021 ft 450 kts 152°
2026-04-14 12:36 43.41685 18.37646 35021 ft 450 kts 152°
2026-04-14 12:37 43.36317 18.42076 35021 ft 450 kts 152°
2026-04-14 12:37 43.30944 18.46488 35020 ft 450 kts 152°
2026-04-14 12:38 43.22884 18.53092 35022 ft 450 kts 152°
2026-04-14 12:39 43.17509 18.57491 35021 ft 450 kts 152°
2026-04-14 12:39 43.12133 18.61893 35023 ft 450 kts 152°
2026-04-14 12:40 43.06755 18.66280 35025 ft 450 kts 152°
2026-04-14 12:40 43.01362 18.70655 35026 ft 450 kts 152°
2026-04-14 12:41 42.95981 18.75020 35025 ft 450 kts 153°
2026-04-14 12:41 42.91505 18.78647 35026 ft 450 kts 153°
2026-04-14 12:42 42.86114 18.83007 35033 ft 450 kts 153°
2026-04-14 12:42 42.80727 18.87355 35031 ft 450 kts 153°
2026-04-14 12:43 42.75337 18.91691 35027 ft 450 kts 153°
2026-04-14 12:43 42.69951 18.96016 35030 ft 450 kts 153°
2026-04-14 12:44 42.64562 19.00338 35026 ft 450 kts 153°
2026-04-14 12:44 42.59210 19.04620 35028 ft 449 kts 153°
2026-04-14 12:45 42.51123 19.11078 35023 ft 450 kts 154°
2026-04-14 12:45 42.45729 19.15369 35015 ft 450 kts 154°
2026-04-14 12:46 42.40325 19.19668 35010 ft 450 kts 154°
2026-04-14 12:46 42.34922 19.23948 35014 ft 450 kts 154°
2026-04-14 12:47 42.29514 19.28219 35007 ft 450 kts 154°
2026-04-14 12:47 42.24115 19.32482 35011 ft 450 kts 154°
2026-04-14 12:48 42.18897 19.37248 35001 ft 453 kts 149°
2026-04-14 12:48 42.13756 19.42177 35000 ft 453 kts 149°
2026-04-14 12:49 42.08618 19.47096 35002 ft 453 kts 150°
2026-04-14 12:49 42.03517 19.51961 34995 ft 452 kts 150°
2026-04-14 12:50 41.95808 19.59282 34997 ft 452 kts 150°
2026-04-14 12:51 41.90672 19.64146 34993 ft 451 kts 150°
2026-04-14 12:51 41.85543 19.69002 34990 ft 451 kts 150°
2026-04-14 12:52 41.80413 19.73848 34996 ft 450 kts 150°
2026-04-14 12:52 41.75290 19.78670 34997 ft 450 kts 151°
2026-04-14 12:53 41.70168 19.83496 34999 ft 450 kts 151°
2026-04-14 12:53 41.65043 19.88306 34998 ft 449 kts 151°
2026-04-14 12:54 41.59952 19.93068 34994 ft 450 kts 151°
2026-04-14 12:54 41.54826 19.97859 34997 ft 450 kts 152°
2026-04-14 12:55 41.49702 20.02648 35004 ft 450 kts 152°
2026-04-14 12:55 41.44567 20.07441 35013 ft 450 kts 152°
2026-04-14 12:56 41.39434 20.12212 35024 ft 449 kts 152°
2026-04-14 12:56 41.34311 20.16964 35024 ft 449 kts 152°
2026-04-14 12:57 41.29190 20.21704 35031 ft 448 kts 153°
2026-04-14 12:57 41.24071 20.26427 35035 ft 448 kts 153°
2026-04-14 12:58 41.18960 20.31143 35053 ft 447 kts 153°
2026-04-14 12:58 41.13891 20.35810 35064 ft 446 kts 153°
2026-04-14 12:59 41.08790 20.40503 35069 ft 446 kts 153°
2026-04-14 12:59 41.03690 20.45180 35074 ft 445 kts 154°
2026-04-14 13:00 40.98591 20.49844 35075 ft 445 kts 154°
2026-04-14 13:00 40.93488 20.54495 35079 ft 445 kts 154°
2026-04-14 13:01 40.88390 20.59138 35088 ft 445 kts 154°
2026-04-14 13:01 40.83306 20.63767 35087 ft 443 kts 154°
2026-04-14 13:02 40.78224 20.68381 35078 ft 443 kts 154°
2026-04-14 13:02 40.73142 20.72984 35082 ft 443 kts 155°
2026-04-14 13:03 40.68100 20.77548 35090 ft 443 kts 155°
2026-04-14 13:03 40.63026 20.82136 35094 ft 443 kts 155°
2026-04-14 13:04 40.57950 20.86713 35094 ft 442 kts 155°
2026-04-14 13:04 40.52873 20.91285 35093 ft 442 kts 155°
2026-04-14 13:05 40.47819 20.95918 35103 ft 449 kts 150°
2026-04-14 13:05 40.43071 21.01373 35115 ft 454 kts 148°
2026-04-14 13:06 40.38326 21.06851 35132 ft 454 kts 148°
2026-04-14 13:06 40.33588 21.12307 35136 ft 453 kts 148°
2026-04-14 13:07 40.28852 21.17740 35141 ft 452 kts 148°
2026-04-14 13:07 40.24119 21.23158 35146 ft 452 kts 148°
2026-04-14 13:08 40.19394 21.28570 35149 ft 451 kts 148°
2026-04-14 13:08 40.14672 21.33964 35151 ft 450 kts 149°
2026-04-14 13:09 40.09982 21.39311 35148 ft 450 kts 149°
2026-04-14 13:09 40.05269 21.44675 35147 ft 449 kts 149°
2026-04-14 13:10 40.00559 21.50024 35145 ft 448 kts 149°
2026-04-14 13:10 39.95852 21.55356 35142 ft 448 kts 149°
2026-04-14 13:11 39.91201 21.60808 35143 ft 450 kts 147°
2026-04-14 13:11 39.86616 21.66382 35146 ft 451 kts 147°
2026-04-14 13:12 39.82022 21.71940 35141 ft 450 kts 147°
2026-04-14 13:12 39.77401 21.77445 35140 ft 450 kts 147°
2026-04-14 13:13 39.72805 21.82884 35130 ft 450 kts 147°
2026-04-14 13:13 39.68169 21.88369 35137 ft 450 kts 147°
2026-04-14 13:14 39.63548 21.93849 35129 ft 450 kts 147°
2026-04-14 13:14 39.58915 21.99323 35122 ft 450 kts 147°
2026-04-14 13:15 39.54284 22.04790 35124 ft 450 kts 147°
2026-04-14 13:15 39.49646 22.10251 35123 ft 450 kts 147°
2026-04-14 13:16 39.45017 22.15697 35122 ft 450 kts 147°
2026-04-14 13:16 39.40378 22.21143 35123 ft 450 kts 147°
2026-04-14 13:17 39.35742 22.26572 35129 ft 450 kts 147°
2026-04-14 13:17 39.31107 22.31992 35133 ft 449 kts 147°
2026-04-14 13:18 39.26466 22.37389 35132 ft 449 kts 147°
2026-04-14 13:18 39.21829 22.42780 35132 ft 449 kts 147°
2026-04-14 13:19 39.17228 22.48145 35139 ft 449 kts 147°
2026-04-14 13:19 39.12637 22.53476 35144 ft 449 kts 147°
2026-04-14 13:20 39.08026 22.58813 35139 ft 449 kts 148°
2026-04-14 13:20 39.03376 22.64175 35135 ft 449 kts 148°
2026-04-14 13:21 38.98723 22.69540 35131 ft 450 kts 147°
2026-04-14 13:21 38.94058 22.74920 35135 ft 451 kts 147°
2026-04-14 13:22 38.89384 22.80287 35130 ft 451 kts 148°
2026-04-14 13:22 38.84705 22.85643 35131 ft 451 kts 148°
2026-04-14 13:23 38.80011 22.91018 35131 ft 452 kts 147°
2026-04-14 13:23 38.75324 22.96399 35129 ft 452 kts 147°
2026-04-14 13:24 38.70627 23.01762 35128 ft 453 kts 147°
2026-04-14 13:24 38.63586 23.09758 35131 ft 454 kts 147°
2026-04-14 13:25 38.58871 23.15121 35129 ft 454 kts 147°
2026-04-14 13:26 38.49394 23.25845 35131 ft 455 kts 147°
2026-04-14 13:26 38.44647 23.31212 35132 ft 456 kts 147°
2026-04-14 13:27 38.39889 23.36579 35131 ft 457 kts 147°
2026-04-14 13:27 38.35119 23.41934 35135 ft 458 kts 147°
2026-04-14 13:28 38.30333 23.47302 35137 ft 459 kts 147°
2026-04-14 13:28 38.25536 23.52683 35137 ft 460 kts 147°
2026-04-14 13:29 38.20759 23.58025 35141 ft 461 kts 147°
2026-04-14 13:29 38.15939 23.63409 35142 ft 462 kts 147°
2026-04-14 13:30 38.11113 23.68797 35144 ft 462 kts 147°
2026-04-14 13:30 38.06283 23.74178 35146 ft 462 kts 147°
2026-04-14 13:31 38.01447 23.79562 35175 ft 463 kts 148°
2026-04-14 13:31 37.96603 23.84927 35167 ft 462 kts 148°
2026-04-14 13:32 37.92567 23.89387 35169 ft 463 kts 148°
2026-04-14 13:32 37.87715 23.94737 35182 ft 463 kts 148°
2026-04-14 13:33 37.82858 24.00101 35174 ft 464 kts 148°
2026-04-14 13:33 37.77994 24.05472 35173 ft 464 kts 148°
2026-04-14 13:34 37.70683 24.13498 35163 ft 464 kts 148°
2026-04-14 13:35 37.65805 24.18845 35161 ft 464 kts 148°
2026-04-14 13:35 37.60924 24.24185 35155 ft 465 kts 148°
2026-04-14 13:36 37.56010 24.29496 35159 ft 464 kts 152°
2026-04-14 13:36 37.50660 24.33878 35176 ft 457 kts 157°
2026-04-14 13:37 37.45263 24.38102 35175 ft 457 kts 157°
2026-04-14 13:37 37.39905 24.42300 35170 ft 456 kts 157°
2026-04-14 13:38 37.34517 24.46523 35161 ft 457 kts 157°
2026-04-14 13:38 37.31818 24.48630 34927 ft 457 kts 157°
2026-04-14 13:38 37.29111 24.50743 34688 ft 458 kts 157°
2026-04-14 13:38 37.26404 24.52854 34444 ft 458 kts 157°
2026-04-14 13:39 37.23696 24.54966 34203 ft 459 kts 156°
2026-04-14 13:39 37.21018 24.57065 33918 ft 446 kts 156°
2026-04-14 13:39 37.18453 24.59094 33640 ft 426 kts 156°
2026-04-14 13:39 37.15965 24.61054 33372 ft 418 kts 157°
2026-04-14 13:40 37.13521 24.62961 33104 ft 409 kts 157°
2026-04-14 13:40 37.11120 24.64820 32837 ft 401 kts 157°
2026-04-14 13:40 37.08769 24.66637 32574 ft 394 kts 158°
2026-04-14 13:40 37.06452 24.68425 32314 ft 390 kts 158°
2026-04-14 13:41 37.04141 24.70201 32051 ft 389 kts 157°
2026-04-14 13:41 37.01833 24.71977 31798 ft 389 kts 157°
2026-04-14 13:41 36.99525 24.73756 31543 ft 390 kts 157°
2026-04-14 13:41 36.97217 24.75539 31285 ft 390 kts 156°
2026-04-14 13:42 36.94907 24.77326 31046 ft 391 kts 156°
2026-04-14 13:42 36.92599 24.79107 30800 ft 397 kts 156°
2026-04-14 13:42 36.90255 24.80919 30555 ft 396 kts 156°
2026-04-14 13:42 36.87921 24.82728 30313 ft 394 kts 155°
2026-04-14 13:43 36.85598 24.84531 30045 ft 392 kts 155°
2026-04-14 13:43 36.83283 24.86325 29764 ft 390 kts 155°
2026-04-14 13:43 36.80981 24.88110 29473 ft 388 kts 155°
2026-04-14 13:43 36.78694 24.89879 29205 ft 386 kts 155°
2026-04-14 13:44 36.76420 24.91628 28926 ft 384 kts 155°
2026-04-14 13:44 36.74148 24.93374 28660 ft 382 kts 155°
2026-04-14 13:44 36.71895 24.95110 28393 ft 380 kts 155°
2026-04-14 13:44 36.69655 24.96842 28127 ft 378 kts 155°
2026-04-14 13:45 36.67423 24.98566 27866 ft 376 kts 155°
2026-04-14 13:45 36.65201 25.00274 27605 ft 374 kts 155°
2026-04-14 13:45 36.62984 25.01973 27346 ft 372 kts 155°
2026-04-14 13:45 36.60778 25.03660 27088 ft 371 kts 155°
2026-04-14 13:46 36.58587 25.05333 26833 ft 369 kts 155°
2026-04-14 13:46 36.56402 25.07002 26581 ft 367 kts 155°
2026-04-14 13:46 36.54311 25.08598 26339 ft 364 kts 155°
2026-04-14 13:46 36.52163 25.10241 26094 ft 362 kts 155°
2026-04-14 13:47 36.50024 25.11876 25848 ft 360 kts 155°
2026-04-14 13:47 36.47891 25.13504 25614 ft 359 kts 155°
2026-04-14 13:47 36.45767 25.15121 25378 ft 357 kts 155°
2026-04-14 13:47 36.43679 25.16710 25142 ft 356 kts 155°
2026-04-14 13:48 36.41571 25.18312 24909 ft 355 kts 155°
2026-04-14 13:48 36.39479 25.19909 24670 ft 349 kts 155°
2026-04-14 13:48 36.37434 25.21476 24435 ft 341 kts 155°
2026-04-14 13:48 36.35439 25.23001 24197 ft 334 kts 155°
2026-04-14 13:49 36.33478 25.24494 23978 ft 327 kts 155°
2026-04-14 13:49 36.31544 25.25957 23746 ft 324 kts 156°
2026-04-14 13:49 36.29621 25.27406 23477 ft 322 kts 156°
2026-04-14 13:49 36.27711 25.28842 23205 ft 321 kts 156°
2026-04-14 13:50 36.25801 25.30283 22935 ft 320 kts 155°
2026-04-14 13:50 36.23899 25.31722 22666 ft 320 kts 156°
2026-04-14 13:50 36.22004 25.33154 22401 ft 319 kts 156°
2026-04-14 13:50 36.20113 25.34588 22135 ft 318 kts 156°
2026-04-14 13:51 36.18227 25.36020 21691 ft 322 kts 156°
2026-04-14 13:51 36.16301 25.37474 21047 ft 324 kts 156°
2026-04-14 13:51 36.14386 25.38923 20428 ft 322 kts 156°
2026-04-14 13:51 36.12478 25.40276 19823 ft 316 kts 162°
2026-04-14 13:52 36.10460 25.41258 19227 ft 308 kts 170°
2026-04-14 13:52 36.08425 25.42069 18636 ft 306 kts 170°
2026-04-14 13:52 36.06403 25.42884 17998 ft 305 kts 169°
2026-04-14 13:52 36.04389 25.43698 17339 ft 304 kts 169°
2026-04-14 13:53 36.02386 25.44507 16690 ft 302 kts 169°
2026-04-14 13:53 36.00389 25.45310 16057 ft 301 kts 169°
2026-04-14 13:53 35.98398 25.46109 15444 ft 300 kts 169°
2026-04-14 13:53 35.96417 25.46906 14837 ft 299 kts 168°
2026-04-14 13:54 35.94438 25.47704 14237 ft 298 kts 168°
2026-04-14 13:54 35.92473 25.48494 13619 ft 296 kts 168°
2026-04-14 13:54 35.90517 25.49278 12962 ft 295 kts 168°
2026-04-14 13:54 35.88589 25.50052 12549 ft 285 kts 168°
2026-04-14 13:55 35.86751 25.50795 12291 ft 271 kts 168°
2026-04-14 13:55 35.85001 25.51504 12045 ft 258 kts 168°
2026-04-14 13:55 35.83323 25.52182 11787 ft 253 kts 168°
2026-04-14 13:55 35.81649 25.52850 11535 ft 252 kts 168°
2026-04-14 13:56 35.79976 25.53513 11291 ft 252 kts 168°
2026-04-14 13:56 35.78306 25.54176 11047 ft 252 kts 168°
2026-04-14 13:56 35.76662 25.54829 10799 ft 252 kts 167°
2026-04-14 13:56 35.74993 25.55492 10556 ft 252 kts 167°
2026-04-14 13:57 35.73301 25.55998 10326 ft 248 kts 177°
2026-04-14 13:57 35.71593 25.56122 10088 ft 245 kts 187°
2026-04-14 13:57 35.69914 25.55883 9831 ft 241 kts 197°
2026-04-14 13:57 35.68315 25.55308 9594 ft 238 kts 206°
2026-04-14 13:58 35.66835 25.54426 9377 ft 235 kts 215°
2026-04-14 13:58 35.65512 25.53269 9164 ft 232 kts 224°
2026-04-14 13:58 35.64312 25.51936 8952 ft 233 kts 225°
2026-04-14 13:58 35.63120 25.50608 8736 ft 229 kts 225°
2026-04-14 13:59 35.61952 25.49315 8492 ft 223 kts 225°
2026-04-14 13:59 35.60882 25.47969 8235 ft 218 kts 236°
2026-04-14 13:59 35.60139 25.46368 7990 ft 215 kts 251°
2026-04-14 13:59 35.59759 25.44601 7745 ft 213 kts 264°
2026-04-14 14:00 35.59751 25.42792 7495 ft 212 kts 278°
2026-04-14 14:00 35.60107 25.41035 7257 ft 212 kts 291°
2026-04-14 14:00 35.60793 25.39431 7016 ft 213 kts 302°
2026-04-14 14:00 35.61559 25.37872 6781 ft 213 kts 299°
2026-04-14 14:01 35.62262 25.36275 6539 ft 212 kts 297°
2026-04-14 14:01 35.62909 25.34640 6286 ft 213 kts 294°
2026-04-14 14:01 35.63493 25.32966 6033 ft 213 kts 292°
2026-04-14 14:01 35.64005 25.31289 5799 ft 213 kts 289°
2026-04-14 14:02 35.64474 25.29520 5535 ft 213 kts 287°
2026-04-14 14:02 35.64863 25.27757 5290 ft 214 kts 283°
2026-04-14 14:02 35.65173 25.25995 5122 ft 214 kts 281°
2026-04-14 14:02 35.65425 25.24187 4997 ft 215 kts 278°
2026-04-14 14:03 35.65611 25.22358 4879 ft 216 kts 275°
2026-04-14 14:03 35.65726 25.20515 4756 ft 216 kts 273°
2026-04-14 14:03 35.65769 25.18665 4628 ft 217 kts 270°
2026-04-14 14:03 35.65738 25.16813 4502 ft 217 kts 267°
2026-04-14 14:04 35.65634 25.14964 4375 ft 217 kts 264°
2026-04-14 14:04 35.65458 25.13114 4256 ft 218 kts 262°
2026-04-14 14:04 35.65211 25.11279 4129 ft 218 kts 259°
2026-04-14 14:04 35.64895 25.09461 4002 ft 218 kts 256°
2026-04-14 14:05 35.64509 25.07656 3880 ft 218 kts 253°
2026-04-14 14:05 35.64052 25.05875 3756 ft 218 kts 250°
2026-04-14 14:05 35.63527 25.04122 3633 ft 219 kts 247°
2026-04-14 14:05 35.62930 25.02402 3506 ft 219 kts 244°
2026-04-14 14:06 35.62259 25.00726 3383 ft 218 kts 238°
2026-04-14 14:06 35.61223 24.99414 3256 ft 214 kts 207°
2026-04-14 14:06 35.59818 24.98903 3085 ft 211 kts 178°
2026-04-14 14:06 35.58419 24.99285 2811 ft 205 kts 149°
2026-04-14 14:07 35.57221 25.00217 2510 ft 203 kts 145°
2026-04-14 14:07 35.56053 25.01152 2219 ft 203 kts 146°
2026-04-14 14:07 35.54869 25.02081 1951 ft 200 kts 147°
2026-04-14 14:07 35.53731 25.02970 1894 ft 187 kts 147°
2026-04-14 14:08 35.52653 25.03804 1907 ft 181 kts 148°
2026-04-14 14:08 35.51588 25.04610 1907 ft 180 kts 149°
2026-04-14 14:08 35.50521 25.05406 1897 ft 179 kts 150°
2026-04-14 14:08 35.49452 25.06202 1736 ft 181 kts 148°
2026-04-14 14:09 35.48380 25.07007 1498 ft 180 kts 148°
2026-04-14 14:09 35.47324 25.07802 1314 ft 177 kts 148°
2026-04-14 14:09 35.46283 25.08587 1075 ft 173 kts 148°
2026-04-14 14:09 35.45339 25.09299 1066 ft 149 kts 147°
2026-04-14 14:10 35.44503 25.09958 1028 ft 139 kts 146°
2026-04-14 14:10 35.43720 25.10618 1045 ft 135 kts 144°
2026-04-14 14:10 35.42956 25.11286 1094 ft 136 kts 144°
2026-04-14 14:10 35.42192 25.11967 1086 ft 135 kts 144°
2026-04-14 14:11 35.41435 25.12651 1098 ft 135 kts 145°
2026-04-14 14:11 35.40659 25.13302 1105 ft 135 kts 146°
2026-04-14 14:11 35.39886 25.13930 1112 ft 135 kts 147°
2026-04-14 14:11 35.39078 25.14504 1078 ft 134 kts 163°
2026-04-14 14:12 35.38165 25.14464 1118 ft 137 kts 200°
2026-04-14 14:12 35.37456 25.13665 1176 ft 146 kts 239°
2026-04-14 14:12 35.36980 25.12592 1165 ft 140 kts 222°
2026-04-14 14:12 35.36217 25.11933 1049 ft 132 kts 195°
2026-04-14 14:13 35.35349 25.11625 1130 ft 131 kts 187°
2026-04-14 14:13 35.34492 25.11884 1091 ft 133 kts 140°
2026-04-14 14:13 35.34208 25.12965 965 ft 141 kts 95°
2026-04-14 14:13 35.34267 25.14150 753 ft 135 kts 98°
2026-04-14 14:14 35.34187 25.15297 479 ft 136 kts 103°
2026-04-14 14:14 35.34069 25.16607 597 ft 172 kts 103°
2026-04-14 14:14 35.33926 25.18113 1446 ft 181 kts 98°
2026-04-14 14:14 35.33777 25.19727 2139 ft 197 kts 98°
2026-04-14 14:15 35.33560 25.21468 2445 ft 215 kts 99°
2026-04-14 14:15 35.33657 25.23311 2969 ft 222 kts 69°
2026-04-14 14:15 35.34573 25.24814 3759 ft 225 kts 36°
2026-04-14 14:15 35.35940 25.25763 4537 ft 227 kts 26°
2026-04-14 14:16 35.37386 25.26610 4912 ft 231 kts 25°
2026-04-14 14:16 35.38816 25.27442 5000 ft 230 kts 25°
2026-04-14 14:16 35.40262 25.28286 5012 ft 230 kts 25°
2026-04-14 14:17 35.43143 25.29971 5007 ft 230 kts 25°
2026-04-14 14:17 35.44585 25.30819 5005 ft 230 kts 25°
2026-04-14 14:17 35.46032 25.31671 5014 ft 234 kts 25°
2026-04-14 14:17 35.47521 25.32548 5012 ft 243 kts 25°
2026-04-14 14:18 35.49073 25.33436 5010 ft 249 kts 19°
2026-04-14 14:18 35.50773 25.33741 5011 ft 249 kts 355°
2026-04-14 14:18 35.52495 25.33500 5000 ft 249 kts 353°
2026-04-14 14:18 35.54221 25.33242 5006 ft 250 kts 353°
2026-04-14 14:19 35.55387 25.33066 5002 ft 250 kts 352°
2026-04-14 14:19 35.57673 25.32722 5004 ft 250 kts 353°
2026-04-14 14:19 35.59389 25.32464 4878 ft 250 kts 352°
2026-04-14 14:19 35.61074 25.31962 4761 ft 249 kts 338°
2026-04-14 14:20 35.62589 25.30945 4628 ft 249 kts 323°
2026-04-14 14:20 35.63838 25.29476 4512 ft 249 kts 308°
2026-04-14 14:20 35.64472 25.28313 4425 ft 249 kts 298°
2026-04-14 14:20 35.65105 25.26331 4299 ft 249 kts 283°
2026-04-14 14:21 35.65402 25.24229 4178 ft 250 kts 277°
2026-04-14 14:21 35.65600 25.22076 4047 ft 250 kts 275°
2026-04-14 14:21 35.65708 25.19962 3924 ft 251 kts 272°
2026-04-14 14:21 35.65729 25.17819 3799 ft 251 kts 269°
2026-04-14 14:22 35.65656 25.15675 3680 ft 251 kts 265°
2026-04-14 14:22 35.65482 25.13537 3557 ft 252 kts 262°
2026-04-14 14:22 35.65208 25.11412 3432 ft 251 kts 259°
2026-04-14 14:22 35.64842 25.09321 3270 ft 250 kts 255°
2026-04-14 14:23 35.64389 25.07263 3147 ft 246 kts 252°
2026-04-14 14:23 35.63870 25.05311 3035 ft 235 kts 249°
2026-04-14 14:23 35.63284 25.03460 3000 ft 231 kts 246°
2026-04-14 14:23 35.62613 25.01666 2997 ft 231 kts 238°
2026-04-14 14:24 35.61558 25.00224 2999 ft 226 kts 212°
2026-04-14 14:24 35.60140 24.99457 3001 ft 223 kts 188°
2026-04-14 14:24 35.58613 24.99455 3003 ft 220 kts 165°
2026-04-14 14:24 35.57220 25.00190 3003 ft 218 kts 145°
2026-04-14 14:25 35.55974 25.01193 3005 ft 207 kts 145°
2026-04-14 14:25 35.54793 25.02132 3005 ft 199 kts 145°
2026-04-14 14:25 35.53645 25.03042 3011 ft 195 kts 146°
2026-04-14 14:25 35.52499 25.03949 2926 ft 199 kts 145°
2026-04-14 14:26 35.51308 25.04894 2706 ft 207 kts 146°
2026-04-14 14:26 35.50094 25.05855 2474 ft 208 kts 146°
2026-04-14 14:26 35.48888 25.06809 2245 ft 204 kts 146°
2026-04-14 14:26 35.47714 25.07740 2027 ft 197 kts 147°
2026-04-14 14:27 35.46592 25.08628 1938 ft 184 kts 147°
2026-04-14 14:27 35.45599 25.09414 1884 ft 160 kts 147°
2026-04-14 14:27 35.44694 25.10144 1721 ft 148 kts 146°
2026-04-14 14:27 35.43850 25.10822 1508 ft 143 kts 149°
2026-04-14 14:28 35.42934 25.11206 1339 ft 138 kts 174°
2026-04-14 14:28 35.41986 25.11093 1162 ft 136 kts 190°
2026-04-14 14:28 35.41073 25.10831 1160 ft 134 kts 191°
2026-04-14 14:28 35.40173 25.10548 1239 ft 134 kts 193°
2026-04-14 14:29 35.39278 25.10243 1203 ft 133 kts 193°
2026-04-14 14:29 35.38396 25.09914 1157 ft 132 kts 194°
2026-04-14 14:29 35.37538 25.09563 1109 ft 132 kts 195°
2026-04-14 14:29 35.36679 25.09177 1072 ft 131 kts 195°
2026-04-14 14:30 35.35795 25.09187 1059 ft 130 kts 157°
2026-04-14 14:30 35.35013 25.09792 1032 ft 132 kts 142°
2026-04-14 14:30 35.34551 25.10750 979 ft 139 kts 109°
2026-04-14 14:30 35.34438 25.11917 775 ft 136 kts 101°
2026-04-14 14:31 35.34337 25.13053 640 ft 133 kts 104°
2026-04-14 14:31 35.34245 25.14198 476 ft 137 kts 101°
2026-04-14 14:31 35.34167 25.15362 317 ft 137 kts 102°
2026-04-14 14:31 35.34084 25.16525 136 ft 135 kts 101°
2026-04-14 14:32 35.34001 25.17541 91 ft 91 kts 94°
2026-04-14 14:32 35.33980 25.17954 94 ft 18 kts 102°
2026-04-14 14:32 35.33915 25.17993 93 ft 9 kts 195°
2026-04-14 14:32 35.33881 25.17949 92 ft 6 kts 264°
2026-04-14 14:33 35.33884 25.17889 94 ft 8 kts 275°
2026-04-14 14:33 35.33889 25.17831 93 ft 6 kts 276°
2026-04-14 14:33 35.33893 25.17776 92 ft 8 kts 275°
2026-04-14 14:33 35.33899 25.17698 94 ft 10 kts 275°
2026-04-14 14:34 35.33908 25.17561 91 ft 7 kts 275°
2026-04-14 14:34 35.33897 25.17508 93 ft 7 kts 222°
2026-04-14 14:34 35.33854 25.17485 91 ft 8 kts 241°
2026-04-14 14:35 35.33870 25.17429 91 ft 4 kts 329°
2026-04-14 14:35 35.33872 25.17427 91 ft 0 kts 328°